[[{"header":{"parameterUnit":"m.s-1","parameterCategory":1,"la1":30.2991,"la2":30.254,"lo1":-89.0895,"lo2":-89.0444,"dy":0.0017,"dx":0.0017,"nx":28,"ny":28,"refTime":"2023-07-22T03:00:00:Z","depth":0,"parameterNumber":2,"parameterNumberName":"U-component_of_WINDS"},"data":[0,0,0,0,0,0,0,0,0,0,0,0,0,0,0,0,0,0,0,0,0,0,0,0,0,0,0,0,0,0,0,0,0,0,0,0,0,0,0,0,0,0,0,0,0,0,0,0,0,0,0,0,0,0,0,0,0,0,4.6975,4.6974,0,4.6868,4.6867,4.6866,4.659,4.6584,4.6578,4.6572,4.6477,4.648,4.6483,0,0,0,0,0,0,0,0,0,0,0,0,0,4.6952,4.6954,4.6975,4.6974,4.6973,4.6868,4.6867,4.6866,4.6591,4.6584,4.6576,4.657,4.6476,4.648,4.6483,0,0,0,0,0,0,0,0,0,0,0,0,0,4.6916,4.6955,4.6976,4.6823,4.6808,4.6869,4.6867,4.6865,4.6592,4.6583,4.6575,4.6566,4.6475,4.6479,4.6484,4.6689,0,0,4.6497,4.6499,0,0,0,0,0,0,0,0,4.6919,4.6917,4.6846,4.6833,4.6817,4.6733,4.6823,4.6806,4.6595,4.6675,4.6572,4.6562,4.657,4.6566,4.6566,4.6684,4.668,4.6498,4.65,4.6502,4.6503,0,0,0,0,0,0,0,4.6921,4.692,4.6933,4.6846,4.6828,4.6763,4.6748,4.6819,4.6674,4.6667,4.6647,4.6637,4.6561,4.6563,4.6562,4.6678,4.6497,4.6501,4.6504,4.6506,4.6954,4.6963,0,0,0,0,0,0,4.6944,4.6924,4.6937,4.693,4.6846,4.677,4.6754,4.6769,4.6672,4.6649,4.6645,4.6624,4.6559,4.6557,4.6558,4.6786,4.6502,4.6506,4.6509,4.6945,4.6956,4.6966,0,0,0,0,0,0,4.6945,4.6948,4.6941,4.6921,4.6915,4.678,4.68,4.6772,4.6773,4.6655,4.6629,4.6672,4.6552,4.6551,4.6656,4.678,4.6508,4.6512,4.6934,4.6949,4.6961,4.725,0,0,0,0,0,0,4.6945,4.695,4.7024,4.6925,4.6918,4.7039,4.6807,4.6776,4.678,4.6752,4.6674,4.6653,4.6545,4.6651,4.666,4.6781,4.6516,4.6922,4.6941,4.6957,4.7229,4.7272,4.7309,0,0,0,0,0,4.6945,4.7114,4.7029,4.7032,4.7007,4.7047,4.7043,4.6911,4.6791,4.6865,4.6789,4.6656,4.6765,4.6664,4.6672,4.6796,4.6914,4.6935,4.6956,4.7211,4.7264,4.7308,0,0,0,0,0,0,4.7237,4.7098,4.7003,4.7143,4.7108,4.7,4.709,4.6972,4.6974,4.6948,4.6789,4.6774,4.69,4.6859,4.6748,4.6987,4.6817,4.6841,4.7009,4.7058,4.7097,4.7104,4.652,0,0,0,0,0,4.7316,4.7356,4.7235,4.7371,4.7357,4.7228,4.724,4.714,4.71,4.7085,4.7016,4.6985,4.7011,4.7033,4.7051,4.7222,4.72,4.7312,4.7352,4.7385,4.7407,4.749,4.7537,4.7035,4.7034,4.7034,0,0,4.7483,4.7412,4.7448,4.7427,4.7388,4.7435,4.7217,4.7277,4.7311,4.7096,4.7186,4.7137,4.7091,4.7229,4.7286,4.7198,4.7541,4.7412,4.7439,4.7442,4.7517,4.7564,4.7607,4.7049,4.7046,4.7044,0,0,4.7809,4.7761,4.7866,4.783,4.7771,4.7683,4.7709,4.7618,4.7573,4.7662,4.75,4.754,4.7591,4.7563,4.7556,4.7869,4.7746,4.7881,4.8089,4.8173,4.8212,4.8246,4.8355,4.8396,4.7903,4.7904,4.7904,0,4.8025,4.8085,4.7937,4.8004,4.8,4.7801,4.7907,4.7881,4.7835,4.7838,4.7739,4.7793,4.775,4.7876,4.7951,4.7954,4.7978,4.7888,4.8218,4.8251,4.8281,4.8382,4.8424,4.792,4.7918,4.7916,4.7915,0,4.8351,4.8396,4.8489,4.8441,4.8447,4.8536,4.8402,4.8427,4.8327,4.8251,4.8343,4.8283,4.8283,4.8306,4.8213,4.8419,4.8365,4.8246,4.8071,4.8347,4.844,4.8478,4.7944,4.7938,4.7933,4.7929,0,0,4.8859,4.8724,4.8761,4.8734,4.8654,4.8688,4.8767,4.8762,4.8785,4.876,4.8822,4.8867,4.8753,4.8745,4.8647,4.8721,4.8968,4.859,4.8586,4.866,4.9188,4.9276,4.9324,4.8886,4.8893,4.8898,4.919,0,4.9162,4.9284,4.9151,4.9302,4.934,4.9151,4.922,4.918,4.9111,4.9136,4.906,4.9093,4.8942,4.8935,4.9,4.8924,4.9071,4.8902,4.8942,4.8946,4.8956,4.9372,4.9467,4.9745,4.9226,4.9232,4.9236,0,4.9533,4.9517,4.9671,4.9576,4.9587,4.9651,4.9633,4.966,4.9611,4.9555,4.9545,4.9423,4.9496,4.9328,4.9425,4.9313,4.9322,4.9288,4.9295,4.9292,4.9106,4.9378,4.9831,4.9872,4.9293,4.9288,4.9284,0,4.9882,4.9902,4.9993,4.9978,4.9872,4.992,4.9879,4.982,4.9825,4.9812,4.9813,4.9812,4.9811,4.9813,4.9695,4.9584,4.9807,4.963,4.9762,4.9766,4.9816,4.9814,5.0275,4.9829,4.9828,4.9827,4.9826,0,5.0233,5.0334,5.0148,5.0205,5.0311,5.016,5.0271,5.0211,5.016,5.0203,5.0043,5.0088,4.993,4.996,4.9869,4.9961,4.9964,4.9921,4.9895,4.9933,4.9938,4.9935,4.9912,4.9838,4.9836,4.9834,4.9832,0,5.0641,5.052,5.0607,5.0498,5.0473,5.0556,5.0464,5.0513,5.0432,5.0489,5.0494,5.0368,5.0393,5.0275,5.0283,5.0221,5.036,5.0303,5.0375,5.0356,5.0494,5.0481,5.0966,5.1021,5.0544,5.0549,5.0553,0,5.0871,5.0942,5.0838,5.0853,5.0818,5.0846,5.0847,5.0702,5.0711,5.0658,5.0714,5.0725,5.0725,5.0776,5.0687,5.0691,5.0631,5.0801,5.0631,5.0666,5.0629,5.0625,5.063,5.0836,5.0842,5.0846,5.085,0,5.1291,5.1226,5.1232,5.1218,5.1223,5.1206,5.1179,5.1201,5.1044,5.1063,5.1083,5.1083,5.1087,5.11,5.1084,5.1045,5.0923,5.0904,5.0934,5.0973,5.101,5.0988,5.0467,5.0894,5.0889,5.0886,5.0884,5.0882,5.1613,5.1666,5.1599,5.1611,5.1574,5.1552,5.159,5.1512,5.1525,5.1513,5.1428,5.1465,5.1412,5.1378,5.135,5.1378,5.1298,5.1343,5.1354,5.1366,5.1389,5.1008,5.1376,5.1374,5.1373,5.1372,5.1371,0,5.2021,5.1968,5.198,5.1943,5.1953,5.1832,5.1795,5.1812,5.1844,5.1804,5.1806,5.1829,5.184,5.1752,5.1751,5.179,5.1734,5.1795,5.1789,5.1781,5.1462,5.1434,5.184,5.184,5.184,5.184,5.184,5.184,5.2233,5.2315,5.2244,5.2306,5.2253,5.2283,5.2272,5.225,5.2216,5.2248,5.2254,5.2194,5.2134,5.2127,5.2132,5.2106,5.2112,5.2192,5.2147,5.185,5.1804,5.1761,5.1733,5.2196,5.2196,5.2463,5.2465,5.2467]},{"header":{"parameterUnit":"m.s-1","parameterCategory":1,"la1":30.2991,"la2":30.254,"lo1":-89.0895,"lo2":-89.0444,"dy":0.0017,"dx":0.0017,"nx":28,"ny":28,"refTime":"2023-07-22T03:00:00:Z","depth":0,"parameterNumber":3,"parameterNumberName":"V-component_of_WINDS"},"data":[0,0,0,0,0,0,0,0,0,0,0,0,0,0,0,0,0,0,0,0,0,0,0,0,0,0,0,0,0,0,0,0,0,0,0,0,0,0,0,0,0,0,0,0,0,0,0,0,0,0,0,0,0,0,0,0,0,0,1.7368,1.7371,0,1.7689,1.7693,1.7697,1.7724,1.772,1.7717,1.7714,1.8055,1.8067,1.8079,0,0,0,0,0,0,0,0,0,0,0,0,0,1.6787,1.6798,1.7368,1.7372,1.7376,1.7689,1.7693,1.7697,1.7724,1.772,1.7716,1.7712,1.8051,1.8065,1.808,0,0,0,0,0,0,0,0,0,0,0,0,0,1.7067,1.6801,1.7367,1.7427,1.7435,1.7688,1.7693,1.7699,1.7725,1.772,1.7715,1.771,1.8046,1.8064,1.8082,1.8301,0,0,1.8139,1.8147,0,0,0,0,0,0,0,0,1.7051,1.7089,1.7414,1.7423,1.7433,1.7661,1.7614,1.7901,1.7727,1.7616,1.7713,1.7707,1.7929,1.7957,1.8029,1.8317,1.8332,1.814,1.8152,1.816,1.8165,0,0,0,0,0,0,0,1.7032,1.7075,1.7495,1.7419,1.743,1.7441,1.7475,1.7668,1.7798,1.7625,1.7627,1.7664,1.7933,1.8011,1.8037,1.8337,1.814,1.8156,1.8168,1.8175,1.8819,1.8825,0,0,0,0,0,0,1.7,1.7059,1.7485,1.7505,1.7225,1.7455,1.7493,1.7593,1.7796,1.7821,1.7669,1.7665,1.7982,1.8015,1.8049,1.8316,1.8159,1.8177,1.8187,1.8813,1.882,1.8827,0,0,0,0,0,0,1.6987,1.7038,1.7472,1.7283,1.7339,1.7471,1.7583,1.7602,1.768,1.7829,1.7853,1.7723,1.7979,1.8023,1.8237,1.8329,1.8185,1.8202,1.8806,1.8815,1.8824,1.8854,0,0,0,0,0,0,1.697,1.7033,1.7115,1.7284,1.7348,1.7651,1.7588,1.7612,1.771,1.7708,1.7887,1.7911,1.7978,1.8209,1.8255,1.8352,1.8216,1.8798,1.881,1.8821,1.8845,1.8863,1.8878,0,0,0,0,0,1.695,1.7114,1.7119,1.717,1.7453,1.7657,1.7694,1.7764,1.7717,1.7802,1.7898,1.7906,1.8311,1.8231,1.8283,1.8386,1.8793,1.8807,1.882,1.8838,1.8859,1.8878,0,0,0,0,0,0,1.6957,1.7137,1.7145,1.7368,1.7496,1.766,1.777,1.7785,1.7932,1.7924,1.8009,1.8049,1.8259,1.8345,1.8252,1.8608,1.8548,1.8572,1.8544,1.8565,1.8581,1.8556,1.8232,0,0,0,0,0,1.6983,1.713,1.7281,1.7464,1.7527,1.7637,1.7729,1.7771,1.7909,1.7964,1.8076,1.8212,1.837,1.8473,1.8627,1.8858,1.8898,1.8955,1.8972,1.8984,1.9004,1.9131,1.9158,1.8871,1.8871,1.8871,0,0,1.7042,1.7158,1.7246,1.7468,1.7572,1.7724,1.7683,1.7847,1.7961,1.7991,1.8197,1.8284,1.8442,1.8664,1.8769,1.8743,1.9092,1.9001,1.901,1.9024,1.9148,1.9175,1.9199,1.888,1.8879,1.8877,0,0,1.7224,1.7327,1.7489,1.7594,1.775,1.7822,1.7861,1.8024,1.8081,1.8289,1.8313,1.8453,1.8724,1.8834,1.8926,1.9149,1.9162,1.9198,1.9283,1.9405,1.9428,1.9448,1.9526,1.9553,1.9218,1.9218,1.9218,0,1.7277,1.7504,1.7572,1.7733,1.783,1.786,1.8025,1.8125,1.8326,1.8393,1.8361,1.8699,1.8808,1.9056,1.9109,1.9184,1.9231,1.9177,1.9418,1.944,1.946,1.9535,1.9564,1.9221,1.922,1.922,1.922,0,1.7561,1.7718,1.7831,1.8018,1.8128,1.8292,1.8386,1.849,1.8523,1.8599,1.8811,1.8942,1.9122,1.9184,1.9221,1.9438,1.9416,1.94,1.9341,1.9489,1.9561,1.959,1.9225,1.9224,1.9223,1.9222,0,0,1.7756,1.7977,1.8018,1.8102,1.8277,1.8402,1.8567,1.8738,1.8825,1.8963,1.9104,1.9331,1.9316,1.9421,1.947,1.9577,1.9743,1.9549,1.9554,1.9578,1.9988,1.9997,2.003,1.9753,1.9758,1.9763,1.9974,0,1.7957,1.8246,1.8312,1.8563,1.8708,1.8739,1.8883,1.9007,1.9083,1.922,1.9306,1.9464,1.9433,1.9496,1.9604,1.9699,1.9826,1.9686,1.9886,1.9892,1.9842,2.0068,2.0079,2.0272,2.0003,2.0008,2.0012,0,1.8229,1.8368,1.8631,1.8785,1.8849,1.8976,1.9138,1.9268,1.941,1.9458,1.9573,1.961,1.9785,1.9717,1.996,1.9863,1.9949,2.0008,2.0018,2.0038,1.9959,2.0092,2.0335,2.0363,2.0057,2.0053,2.005,0,1.8342,1.8596,1.8785,1.8858,1.9042,1.9131,1.9213,1.9349,1.9448,1.9591,1.9655,1.9818,1.9907,2.0034,2.0115,2.0058,2.035,2.029,2.0395,2.0393,2.0455,2.0449,2.0713,2.0513,2.0513,2.0512,2.0512,0,1.8557,1.8717,1.8838,1.8954,1.9135,1.921,1.9388,1.947,1.9591,1.9726,1.9765,1.9891,1.9991,2.0132,2.0197,2.0387,2.0428,2.0472,2.0487,2.0468,2.0462,2.0524,2.0512,2.052,2.0518,2.0517,2.0515,0,1.8713,1.88,1.9009,1.9166,1.9209,1.9335,1.947,1.9586,1.9662,1.9832,1.9877,1.9997,2.0165,2.0258,2.047,2.0514,2.0725,2.0735,2.0675,2.0681,2.078,2.0769,2.1092,2.1138,2.0909,2.0911,2.0913,0,1.8843,1.8966,1.9135,1.9226,1.9308,1.9456,1.9555,1.9635,1.9737,1.9907,2.0002,2.0171,2.031,2.0577,2.0685,2.0847,2.086,2.0962,2.0885,2.086,2.0859,2.085,2.0862,2.0975,2.0977,2.0979,2.098,0,1.9065,1.9102,1.9242,1.9397,1.9513,1.9641,1.9767,1.984,1.9941,2.0055,2.0224,2.0332,2.0545,2.0713,2.0883,2.0971,2.0993,2.1003,2.1036,2.1016,2.0976,2.0997,2.0709,2.0995,2.0994,2.0993,2.0992,2.0991,1.9211,1.9321,1.9456,1.9611,1.9713,1.983,1.9945,2.0034,2.0175,2.0352,2.0393,2.0571,2.071,2.094,2.1032,2.1174,2.1156,2.1203,2.1215,2.1225,2.1227,2.0954,2.1206,2.1206,2.1206,2.1205,2.1205,0,1.9433,1.9521,1.9662,1.9835,1.9957,1.9964,2.0104,2.0206,2.0361,2.0487,2.0622,2.0816,2.0978,2.1098,2.1264,2.1355,2.1369,2.1396,2.1389,2.1409,2.1236,2.119,2.1381,2.1381,2.1381,2.1381,2.1381,2.1381,1.9562,1.9747,1.98,2.0037,2.0125,2.0297,2.0376,2.0484,2.0585,2.0799,2.0932,2.1008,2.1133,2.1307,2.1457,2.1488,2.1547,2.1572,2.1604,2.144,2.1421,2.1403,2.136,2.1584,2.1585,2.1765,2.1767,2.1768]}]]